QPF
0.00 0.00 0.00 0.00 0.00 0.00 0.01 0.01 0.01 0.01 0.01 0.01 0.01 0.01 0.01 0.01 0.02 0.03 0.01 0.02 0.02 0.02 0.01 0.01 0.01 0.01 0.01 0.01 0.02 0.02 0.02 0.03 0.02 0.02 0.02 0.03 0.03 0.02 0.01 0.01 0.02 0.04 0.06 0.07 0.05 0.04 0.04 0.04 0.07
0.00 0.00 0.00 0.00 0.00 0.00 0.01 0.01 0.01 0.01 0.01 0.01 0.00 0.01 0.02 0.01 0.01 0.02 0.02 0.02 0.02 0.02 0.01 0.00 0.01 0.01 0.01 0.01 0.01 0.02 0.02 0.02 0.02 0.02 0.02 0.02 0.02 0.02 0.02 0.02 0.02 0.04 0.06 0.07 0.05 0.04 0.04 0.05 0.09
0.00 0.00 0.00 0.00 0.00 0.00 0.00 0.00 0.00 0.01 0.01 0.01 0.01 0.02 0.02 0.01 0.01 0.01 0.02 0.02 0.01 0.01 0.01 0.01 0.02 0.02 0.02 0.01 0.02 0.02 0.02 0.02 0.03 0.03 0.03 0.02 0.02 0.02 0.01 0.02 0.02 0.02 0.03 0.04 0.04 0.04 0.04 0.06 0.09
0.00 0.00 0.00 0.00 0.00 0.00 0.00 0.00 0.00 0.01 0.01 0.01 0.03 0.04 0.02 0.02 0.02 0.02 0.02 0.02 0.02 0.01 0.01 0.01 0.02 0.02 0.02 0.02 0.02 0.03 0.03 0.03 0.03 0.04 0.03 0.03 0.03 0.02 0.02 0.03 0.02 0.03 0.03 0.03 0.03 0.03 0.04 0.06 0.08
0.00 0.00 0.00 0.00 0.00 0.00 0.00 0.00 0.00 0.01 0.01 0.01 0.03 0.04 0.03 0.02 0.03 0.03 0.03 0.02 0.02 0.03 0.02 0.02 0.02 0.02 0.02 0.02 0.02 0.02 0.03 0.04 0.04 0.05 0.04 0.04 0.04 0.02 0.02 0.02 0.01 0.02 0.04 0.03 0.03 0.03 0.03 0.05 0.06
0.00 0.00 0.00 0.00 0.00 0.00 0.01 0.01 0.01 0.01 0.01 0.01 0.02 0.02 0.02 0.02 0.03 0.04 0.04 0.04 0.04 0.03 0.03 0.03 0.03 0.03 0.02 0.03 0.02 0.02 0.03 0.03 0.04 0.04 0.04 0.04 0.03 0.03 0.02 0.01 0.01 0.02 0.03 0.03 0.02 0.02 0.02 0.04 0.04
0.00 0.00 0.00 0.00 0.00 0.00 0.01 0.01 0.01 0.01 0.01 0.01 0.01 0.01 0.02 0.01 0.03 0.05 0.06 0.04 0.04 0.03 0.03 0.03 0.03 0.02 0.02 0.03 0.05 0.03 0.02 0.03 0.03 0.04 0.04 0.04 0.03 0.03 0.02 0.02 0.02 0.02 0.03 0.03 0.03 0.02 0.03 0.04 0.04
0.00 0.00 0.00 0.00 0.00 0.00 0.01 0.01 0.01 0.01 0.01 0.01 0.01 0.01 0.03 0.03 0.01 0.02 0.04 0.04 0.04 0.03 0.02 0.02 0.02 0.02 0.01 0.02 0.04 0.04 0.03 0.03 0.04 0.04 0.05 0.05 0.04 0.03 0.03 0.03 0.03 0.02 0.03 0.03 0.03 0.02 0.02 0.03 0.03
0.00 0.00 0.00 0.00 0.00 0.01 0.01 0.01 0.01 0.01 0.01 0.01 0.01 0.02 0.02 0.02 0.01 0.01 0.01 0.02 0.04 0.03 0.03 0.03 0.04 0.04 0.03 0.03 0.04 0.04 0.03 0.04 0.04 0.06 0.05 0.05 0.04 0.04 0.04 0.03 0.04 0.04 0.03 0.04 0.03 0.03 0.03 0.03 0.03
0.00 0.00 0.00 0.00 0.00 0.01 0.01 0.01 0.01 0.00 0.00 0.01 0.01 0.01 0.02 0.01 0.02 0.01 0.01 0.01 0.02 0.03 0.03 0.04 0.06 0.06 0.04 0.03 0.02 0.02 0.02 0.02 0.03 0.06 0.05 0.06 0.04 0.04 0.03 0.04 0.04 0.04 0.04 0.04 0.04 0.04 0.03 0.03 0.02
0.00 0.00 0.00 0.00 0.01 0.01 0.01 0.00 0.01 0.00 0.00 0.00 0.01 0.01 0.01 0.01 0.01 0.01 0.01 0.01 0.01 0.01 0.02 0.01 0.02 0.03 0.02 0.01 0.01 0.02 0.02 0.03 0.04 0.06 0.06 0.06 0.05 0.04 0.03 0.03 0.03 0.03 0.04 0.03 0.04 0.04 0.03 0.02 0.02
0.00 0.00 0.00 0.00 0.00 0.01 0.01 0.01 0.01 0.01 0.01 0.01 0.01 0.00 0.01 0.01 0.01 0.01 0.00 0.01 0.01 0.01 0.02 0.04 0.03 0.04 0.03 0.01 0.01 0.01 0.01 0.03 0.05 0.06 0.06 0.05 0.04 0.04 0.03 0.02 0.02 0.02 0.01 0.02 0.02 0.02 0.02 0.01 0.02
0.00 0.00 0.00 0.00 0.01 0.01 0.01 0.01 0.01 0.00 0.00 0.01 0.01 0.01 0.00 0.01 0.01 0.01 0.01 0.01 0.02 0.01 0.02 0.05 0.07 0.04 0.03 0.03 0.02 0.02 0.01 0.02 0.04 0.06 0.06 0.04 0.03 0.03 0.03 0.02 0.02 0.02 0.02 0.01 0.02 0.02 0.01 0.01 0.01
0.00 0.00 0.00 0.00 0.00 0.01 0.01 0.02 0.01 0.00 0.00 0.01 0.01 0.01 0.01 0.01 0.01 0.01 0.01 0.01 0.01 0.01 0.02 0.06 0.10 0.08 0.04 0.03 0.03 0.04 0.03 0.03 0.04 0.06 0.06 0.05 0.03 0.03 0.03 0.02 0.02 0.02 0.02 0.01 0.02 0.03 0.02 0.02 0.01
0.00 0.00 0.00 0.00 0.00 0.00 0.01 0.02 0.01 0.01 0.01 0.02 0.02 0.02 0.01 0.01 0.01 0.01 0.01 0.01 0.01 0.02 0.02 0.04 0.11 0.14 0.06 0.04 0.04 0.04 0.03 0.03 0.03 0.04 0.05 0.05 0.05 0.04 0.04 0.03 0.02 0.02 0.02 0.02 0.03 0.05 0.04 0.03 0.02
0.00 0.00 0.00 0.00 0.00 0.00 0.00 0.01 0.01 0.01 0.02 0.02 0.02 0.02 0.01 0.01 0.01 0.01 0.01 0.01 0.01 0.02 0.03 0.04 0.09 0.15 0.09 0.04 0.03 0.03 0.03 0.03 0.02 0.03 0.03 0.03 0.04 0.04 0.04 0.03 0.03 0.03 0.03 0.03 0.03 0.05 0.07 0.04 0.04
0.00 0.00 0.00 0.01 0.00 0.00 0.00 0.01 0.01 0.01 0.01 0.01 0.01 0.01 0.01 0.01 0.01 0.01 0.01 0.01 0.02 0.02 0.04 0.05 0.08 0.13 0.11 0.05 0.04 0.05 0.06 0.04 0.03 0.01 0.01 0.02 0.02 0.02 0.02 0.02 0.03 0.03 0.03 0.03 0.02 0.03 0.05 0.04 0.05
0.00 0.00 0.00 0.00 0.00 0.00 0.00 0.00 0.01 0.00 0.01 0.01 0.01 0.01 0.02 0.01 0.01 0.01 0.00 0.01 0.02 0.03 0.04 0.06 0.07 0.10 0.12 0.07 0.06 0.08 0.08 0.08 0.06 0.02 0.01 0.01 0.01 0.01 0.01 0.01 0.01 0.02 0.02 0.02 0.02 0.03 0.04 0.04 0.05
0.00 0.00 0.00 0.00 0.00 0.00 0.00 0.01 0.01 0.01 0.01 0.01 0.01 0.01 0.01 0.01 0.02 0.01 0.01 0.01 0.02 0.04 0.04 0.05 0.05 0.07 0.10 0.09 0.05 0.04 0.05 0.06 0.06 0.05 0.04 0.04 0.03 0.02 0.01 0.01 0.01 0.02 0.02 0.01 0.02 0.04 0.05 0.05 0.06
0.00 0.00 0.00 0.00 0.00 0.00 0.01 0.01 0.00 0.00 0.01 0.01 0.01 0.02 0.02 0.02 0.03 0.03 0.02 0.02 0.02 0.03 0.04 0.03 0.05 0.06 0.07 0.07 0.06 0.06 0.06 0.05 0.03 0.03 0.04 0.04 0.03 0.02 0.01 0.01 0.01 0.01 0.01 0.02 0.02 0.03 0.04 0.04 0.05
0.00 0.00 0.00 0.00 0.00 0.00 0.00 0.00 0.00 0.00 0.00 0.01 0.01 0.01 0.02 0.02 0.04 0.04 0.02 0.01 0.01 0.03 0.04 0.03 0.04 0.05 0.07 0.06 0.06 0.05 0.05 0.04 0.04 0.02 0.03 0.04 0.04 0.03 0.02 0.01 0.01 0.00 0.01 0.01 0.02 0.02 0.02 0.03 0.03
0.00 0.00 0.00 0.00 0.01 0.00 0.00 0.00 0.01 0.01 0.00 0.01 0.01 0.01 0.01 0.01 0.03 0.04 0.02 0.02 0.02 0.04 0.06 0.04 0.04 0.05 0.07 0.07 0.07 0.05 0.04 0.04 0.05 0.03 0.03 0.03 0.04 0.04 0.03 0.02 0.01 0.01 0.01 0.01 0.01 0.02 0.01 0.01 0.02
0.00 0.00 0.00 0.01 0.01 0.01 0.00 0.00 0.00 0.00 0.00 0.01 0.01 0.01 0.01 0.01 0.02 0.02 0.02 0.03 0.03 0.05 0.06 0.05 0.04 0.05 0.06 0.06 0.06 0.05 0.04 0.04 0.06 0.06 0.03 0.03 0.04 0.04 0.03 0.02 0.01 0.01 0.01 0.01 0.01 0.01 0.01 0.01 0.02
0.00 0.00 0.00 0.01 0.01 0.01 0.00 0.00 0.00 0.00 0.00 0.01 0.01 0.00 0.00 0.01 0.01 0.03 0.03 0.04 0.04 0.05 0.06 0.04 0.04 0.05 0.05 0.05 0.05 0.05 0.04 0.04 0.05 0.06 0.04 0.02 0.03 0.04 0.03 0.02 0.01 0.01 0.01 0.01 0.01 0.01 0.01 0.01 0.02
0.00 0.00 0.00 0.01 0.00 0.00 0.00 0.00 0.00 0.01 0.01 0.02 0.01 0.00 0.00 0.01 0.02 0.03 0.03 0.03 0.03 0.04 0.04 0.03 0.03 0.05 0.06 0.05 0.04 0.04 0.03 0.03 0.03 0.04 0.04 0.02 0.02 0.03 0.02 0.01 0.01 0.01 0.01 0.01 0.01 0.01 0.01 0.01 0.01
0.00 0.00 0.00 0.00 0.00 0.00 0.00 0.01 0.01 0.01 0.01 0.03 0.02 0.01 0.01 0.01 0.01 0.02 0.03 0.04 0.04 0.04 0.04 0.03 0.04 0.05 0.07 0.06 0.04 0.04 0.04 0.03 0.03 0.04 0.04 0.02 0.01 0.02 0.02 0.01 0.01 0.01 0.02 0.02 0.01 0.01 0.01 0.01 0.01
0.00 0.00 0.00 0.00 0.00 0.00 0.00 0.01 0.01 0.01 0.01 0.02 0.02 0.01 0.01 0.01 0.01 0.02 0.03 0.03 0.04 0.03 0.04 0.04 0.04 0.04 0.05 0.05 0.05 0.05 0.05 0.04 0.03 0.03 0.04 0.03 0.03 0.02 0.02 0.01 0.01 0.02 0.03 0.03 0.03 0.02 0.02 0.02 0.02
0.00 0.01 0.01 0.01 0.01 0.00 0.01 0.01 0.01 0.01 0.00 0.01 0.02 0.02 0.02 0.01 0.01 0.02 0.03 0.03 0.03 0.03 0.05 0.05 0.04 0.04 0.03 0.04 0.04 0.04 0.05 0.04 0.03 0.03 0.03 0.03 0.04 0.04 0.03 0.03 0.02 0.03 0.03 0.04 0.04 0.04 0.04 0.03 0.02
0.00 0.01 0.01 0.01 0.01 0.00 0.01 0.01 0.01 0.01 0.01 0.01 0.02 0.02 0.03 0.02 0.02 0.03 0.03 0.03 0.03 0.04 0.04 0.04 0.04 0.03 0.03 0.04 0.04 0.03 0.03 0.03 0.03 0.03 0.02 0.03 0.03 0.04 0.04 0.04 0.04 0.05 0.06 0.05 0.04 0.04 0.04 0.03 0.02
0.02 0.02 0.02 0.02 0.01 0.01 0.01 0.01 0.01 0.01 0.01 0.02 0.02 0.03 0.03 0.03 0.02 0.03 0.03 0.03 0.03 0.03 0.03 0.03 0.02 0.02 0.02 0.03 0.04 0.03 0.03 0.04 0.03 0.02 0.02 0.03 0.04 0.05 0.05 0.06 0.07 0.08 0.08 0.07 0.07 0.06 0.04 0.03 0.03
MSLP
1010.08 1011.04 1012.13 1013.19 1014.07 1014.66 1014.91 1014.86 1014.57 1014.18 1013.83 1013.61 1013.59 1013.75 1014.04 1014.35 1014.58 1014.65 1014.52 1014.20 1013.74 1013.23 1012.75 1012.37 1012.13 1012.03 1012.02 1012.07 1012.11 1012.12 1012.09 1012.03 1011.99 1012.00 1012.10 1012.29 1012.56 1012.88 1013.21 1013.49 1013.70 1013.84 1013.91 1013.94 1013.96 1014.00 1014.06 1014.15 1014.26
1010.59 1011.71 1012.89 1013.93 1014.72 1015.14 1015.17 1014.88 1014.37 1013.79 1013.29 1012.98 1012.90 1013.06 1013.37 1013.73 1014.02 1014.17 1014.12 1013.89 1013.53 1013.11 1012.71 1012.41 1012.23 1012.16 1012.18 1012.23 1012.27 1012.28 1012.25 1012.21 1012.18 1012.21 1012.33 1012.53 1012.80 1013.12 1013.43 1013.69 1013.89 1014.01 1014.06 1014.08 1014.09 1014.12 1014.17 1014.26 1014.36
1011.23 1012.45 1013.64 1014.61 1015.24 1015.46 1015.28 1014.78 1014.09 1013.38 1012.79 1012.45 1012.37 1012.54 1012.88 1013.28 1013.62 1013.81 1013.82 1013.66 1013.38 1013.05 1012.74 1012.51 1012.40 1012.38 1012.42 1012.48 1012.53 1012.54 1012.52 1012.48 1012.46 1012.50 1012.62 1012.82 1013.09 1013.38 1013.67 1013.91 1014.08 1014.19 1014.25 1014.27 1014.28 1014.31 1014.36 1014.45 1014.55
1011.93 1013.18 1014.30 1015.13 1015.57 1015.58 1015.21 1014.55 1013.76 1013.00 1012.42 1012.10 1012.07 1012.29 1012.66 1013.08 1013.44 1013.65 1013.70 1013.58 1013.36 1013.11 1012.88 1012.73 1012.68 1012.70 1012.77 1012.84 1012.89 1012.90 1012.87 1012.83 1012.82 1012.87 1012.99 1013.18 1013.43 1013.69 1013.95 1014.17 1014.33 1014.43 1014.49 1014.52 1014.55 1014.59 1014.66 1014.76 1014.87
1012.60 1013.79 1014.77 1015.41 1015.64 1015.46 1014.94 1014.20 1013.39 1012.68 1012.19 1011.97 1012.03 1012.32 1012.74 1013.17 1013.52 1013.73 1013.78 1013.69 1013.52 1013.32 1013.17 1013.08 1013.08 1013.13 1013.22 1013.29 1013.33 1013.32 1013.29 1013.25 1013.25 1013.29 1013.41 1013.59 1013.82 1014.06 1014.29 1014.49 1014.63 1014.73 1014.80 1014.85 1014.91 1014.98 1015.07 1015.18 1015.31
1013.13 1014.19 1014.97 1015.39 1015.42 1015.08 1014.47 1013.73 1013.00 1012.42 1012.08 1012.02 1012.22 1012.59 1013.05 1013.49 1013.82 1014.00 1014.04 1013.96 1013.82 1013.68 1013.58 1013.55 1013.59 1013.66 1013.74 1013.79 1013.81 1013.78 1013.73 1013.70 1013.69 1013.75 1013.88 1014.05 1014.27 1014.49 1014.69 1014.85 1014.98 1015.08 1015.15 1015.23 1015.32 1015.42 1015.55 1015.68 1015.81
1013.44 1014.31 1014.87 1015.06 1014.90 1014.45 1013.82 1013.15 1012.56 1012.18 1012.06 1012.19 1012.53 1013.00 1013.49 1013.92 1014.22 1014.38 1014.39 1014.32 1014.22 1014.12 1014.08 1014.09 1014.15 1014.22 1014.28 1014.31 1014.29 1014.24 1014.17 1014.14 1014.15 1014.22 1014.36 1014.54 1014.74 1014.94 1015.11 1015.25 1015.35 1015.43 1015.52 1015.61 1015.73 1015.87 1016.02 1016.18 1016.32
1013.51 1014.15 1014.47 1014.45 1014.13 1013.62 1013.03 1012.48 1012.09 1011.94 1012.05 1012.38 1012.86 1013.41 1013.92 1014.34 1014.61 1014.73 1014.74 1014.69 1014.62 1014.58 1014.58 1014.64 1014.71 1014.78 1014.81 1014.79 1014.74 1014.65 1014.58 1014.55 1014.58 1014.68 1014.84 1015.03 1015.23 1015.41 1015.55 1015.65 1015.72 1015.78 1015.85 1015.96 1016.10 1016.27 1016.46 1016.64 1016.80
1013.36 1013.76 1013.85 1013.64 1013.22 1012.69 1012.17 1011.78 1011.61 1011.69 1012.01 1012.51 1013.11 1013.71 1014.23 1014.62 1014.86 1014.97 1014.99 1014.96 1014.95 1014.97 1015.03 1015.13 1015.21 1015.27 1015.27 1015.22 1015.12 1015.02 1014.94 1014.93 1014.99 1015.12 1015.31 1015.52 1015.71 1015.87 1015.98 1016.03 1016.06 1016.10 1016.16 1016.27 1016.43 1016.62 1016.84 1017.05 1017.22
1013.04 1013.24 1013.12 1012.77 1012.27 1011.76 1011.35 1011.13 1011.15 1011.43 1011.93 1012.55 1013.22 1013.84 1014.35 1014.71 1014.93 1015.03 1015.07 1015.10 1015.15 1015.25 1015.38 1015.51 1015.62 1015.67 1015.65 1015.56 1015.45 1015.33 1015.26 1015.27 1015.37 1015.54 1015.76 1015.98 1016.18 1016.32 1016.39 1016.41 1016.40 1016.40 1016.44 1016.55 1016.72 1016.94 1017.19 1017.42 1017.61
1012.69 1012.69 1012.42 1011.96 1011.44 1010.97 1010.66 1010.59 1010.78 1011.21 1011.82 1012.51 1013.20 1013.80 1014.28 1014.60 1014.79 1014.90 1014.98 1015.08 1015.21 1015.39 1015.59 1015.77 1015.90 1015.96 1015.93 1015.83 1015.71 1015.60 1015.55 1015.59 1015.72 1015.93 1016.18 1016.43 1016.62 1016.75 1016.79 1016.77 1016.73 1016.71 1016.74 1016.84 1017.03 1017.28 1017.55 1017.81 1018.02
1012.40 1012.25 1011.86 1011.35 1010.83 1010.42 1010.21 1010.26 1010.56 1011.08 1011.74 1012.44 1013.09 1013.65 1014.06 1014.34 1014.52 1014.65 1014.77 1014.94 1015.15 1015.41 1015.67 1015.91 1016.07 1016.15 1016.13 1016.04 1015.93 1015.84 1015.82 1015.89 1016.06 1016.31 1016.58 1016.83 1017.03 1017.14 1017.17 1017.13 1017.08 1017.04 1017.07 1017.19 1017.39 1017.67 1017.97 1018.26 1018.49
1012.27 1012.01 1011.55 1011.02 1010.52 1010.17 1010.05 1010.18 1010.55 1011.09 1011.74 1012.39 1012.98 1013.45 1013.80 1014.03 1014.20 1014.34 1014.51 1014.74 1015.02 1015.35 1015.67 1015.95 1016.15 1016.25 1016.26 1016.20 1016.12 1016.06 1016.08 1016.19 1016.39 1016.65 1016.93 1017.19 1017.38 1017.49 1017.52 1017.48 1017.44 1017.42 1017.46 1017.60 1017.83 1018.13 1018.47 1018.79 1019.04
1012.34 1012.02 1011.53 1011.00 1010.54 1010.26 1010.20 1010.37 1010.75 1011.27 1011.86 1012.42 1012.91 1013.30 1013.57 1013.77 1013.92 1014.08 1014.29 1014.56 1014.89 1015.26 1015.62 1015.94 1016.16 1016.30 1016.34 1016.33 1016.30 1016.29 1016.34 1016.48 1016.69 1016.95 1017.23 1017.48 1017.67 1017.78 1017.82 1017.81 1017.80 1017.81 1017.90 1018.08 1018.34 1018.67 1019.03 1019.37 1019.64
1012.60 1012.23 1011.74 1011.24 1010.84 1010.61 1010.59 1010.78 1011.13 1011.60 1012.09 1012.55 1012.94 1013.23 1013.45 1013.61 1013.75 1013.93 1014.16 1014.46 1014.81 1015.19 1015.57 1015.89 1016.14 1016.31 1016.40 1016.45 1016.47 1016.52 1016.61 1016.76 1016.97 1017.22 1017.47 1017.70 1017.87 1017.99 1018.06 1018.09 1018.13 1018.21 1018.35 1018.56 1018.86 1019.21 1019.58 1019.94 1020.23
1012.95 1012.57 1012.10 1011.65 1011.31 1011.14 1011.15 1011.32 1011.63 1012.00 1012.39 1012.74 1013.03 1013.25 1013.42 1013.56 1013.71 1013.90 1014.15 1014.45 1014.80 1015.17 1015.52 1015.85 1016.11 1016.31 1016.45 1016.56 1016.65 1016.75 1016.88 1017.04 1017.23 1017.44 1017.65 1017.84 1018.01 1018.13 1018.23 1018.31 1018.41 1018.55 1018.75 1019.01 1019.33 1019.69 1020.07 1020.42 1020.72
1013.30 1012.93 1012.51 1012.12 1011.86 1011.73 1011.76 1011.91 1012.14 1012.42 1012.69 1012.93 1013.13 1013.29 1013.44 1013.58 1013.75 1013.96 1014.21 1014.51 1014.83 1015.17 1015.49 1015.80 1016.06 1016.29 1016.49 1016.67 1016.83 1016.98 1017.14 1017.31 1017.47 1017.64 1017.79 1017.94 1018.08 1018.20 1018.33 1018.47 1018.63 1018.83 1019.08 1019.37 1019.70 1020.06 1020.42 1020.76 1021.06
1013.53 1013.19 1012.84 1012.55 1012.37 1012.30 1012.33 1012.44 1012.59 1012.75 1012.90 1013.03 1013.15 1013.27 1013.41 1013.57 1013.78 1014.02 1014.29 1014.58 1014.87 1015.17 1015.45 1015.73 1015.99 1016.25 1016.50 1016.75 1016.98 1017.19 1017.39 1017.55 1017.69 1017.81 1017.91 1018.01 1018.11 1018.23 1018.38 1018.56 1018.78 1019.03 1019.31 1019.62 1019.95 1020.28 1020.61 1020.93 1021.22
1013.55 1013.29 1013.05 1012.88 1012.79 1012.78 1012.82 1012.87 1012.92 1012.95 1012.96 1012.98 1013.02 1013.10 1013.24 1013.44 1013.69 1013.98 1014.28 1014.57 1014.85 1015.11 1015.36 1015.61 1015.88 1016.16 1016.47 1016.78 1017.09 1017.36 1017.59 1017.77 1017.89 1017.96 1018.02 1018.07 1018.14 1018.25 1018.41 1018.63 1018.88 1019.16 1019.46 1019.76 1020.06 1020.36 1020.65 1020.94 1021.22
1013.35 1013.21 1013.12 1013.10 1013.13 1013.18 1013.22 1013.20 1013.13 1013.00 1012.86 1012.74 1012.68 1012.72 1012.86 1013.10 1013.42 1013.76 1014.11 1014.43 1014.71 1014.95 1015.18 1015.42 1015.69 1016.01 1016.36 1016.75 1017.12 1017.46 1017.74 1017.93 1018.04 1018.09 1018.11 1018.13 1018.18 1018.28 1018.45 1018.68 1018.96 1019.25 1019.55 1019.83 1020.09 1020.34 1020.58 1020.83 1021.10
1012.99 1013.01 1013.11 1013.27 1013.44 1013.56 1013.58 1013.47 1013.25 1012.93 1012.60 1012.31 1012.13 1012.11 1012.24 1012.51 1012.89 1013.31 1013.73 1014.09 1014.40 1014.65 1014.88 1015.12 1015.41 1015.76 1016.16 1016.61 1017.05 1017.46 1017.78 1018.01 1018.13 1018.18 1018.18 1018.18 1018.22 1018.32 1018.49 1018.73 1019.02 1019.31 1019.60 1019.85 1020.07 1020.27 1020.46 1020.68 1020.92
1012.55 1012.79 1013.12 1013.48 1013.79 1013.98 1013.97 1013.75 1013.35 1012.82 1012.26 1011.77 1011.44 1011.31 1011.41 1011.70 1012.13 1012.63 1013.12 1013.55 1013.91 1014.20 1014.45 1014.71 1015.02 1015.40 1015.85 1016.35 1016.86 1017.32 1017.70 1017.97 1018.12 1018.18 1018.19 1018.20 1018.24 1018.34 1018.52 1018.77 1019.06 1019.35 1019.61 1019.84 1020.03 1020.18 1020.34 1020.52 1020.75
1012.18 1012.66 1013.24 1013.81 1014.26 1014.50 1014.45 1014.10 1013.50 1012.72 1011.92 1011.20 1010.68 1010.42 1010.46 1010.74 1011.21 1011.77 1012.33 1012.84 1013.27 1013.61 1013.90 1014.19 1014.53 1014.94 1015.43 1015.97 1016.53 1017.04 1017.47 1017.79 1017.98 1018.07 1018.11 1018.13 1018.19 1018.31 1018.51 1018.76 1019.05 1019.33 1019.59 1019.80 1019.96 1020.10 1020.23 1020.39 1020.61
1011.98 1012.71 1013.53 1014.30 1014.87 1015.14 1015.03 1014.54 1013.72 1012.70 1011.63 1010.67 1009.94 1009.53 1009.47 1009.72 1010.20 1010.81 1011.44 1012.02 1012.52 1012.92 1013.27 1013.60 1013.96 1014.40 1014.91 1015.48 1016.07 1016.62 1017.09 1017.45 1017.69 1017.82 1017.90 1017.95 1018.04 1018.18 1018.39 1018.65 1018.95 1019.24 1019.49 1019.70 1019.86 1019.99 1020.11 1020.27 1020.49
1012.01 1012.97 1013.99 1014.91 1015.57 1015.85 1015.66 1015.02 1014.00 1012.74 1011.42 1010.22 1009.29 1008.72 1008.55 1008.74 1009.20 1009.83 1010.51 1011.16 1011.72 1012.18 1012.58 1012.95 1013.34 1013.80 1014.33 1014.91 1015.51 1016.09 1016.58 1016.97 1017.25 1017.42 1017.53 1017.63 1017.74 1017.90 1018.13 1018.41 1018.72 1019.02 1019.29 1019.51 1019.68 1019.82 1019.96 1020.13 1020.34
1012.24 1013.37 1014.54 1015.55 1016.25 1016.50 1016.23 1015.45 1014.25 1012.79 1011.26 1009.87 1008.76 1008.04 1007.76 1007.86 1008.29 1008.91 1009.61 1010.30 1010.91 1011.43 1011.87 1012.28 1012.70 1013.17 1013.71 1014.29 1014.89 1015.47 1015.98 1016.38 1016.69 1016.89 1017.04 1017.16 1017.30 1017.49 1017.73 1018.03 1018.35 1018.67 1018.95 1019.20 1019.40 1019.57 1019.73 1019.91 1020.14
1012.61 1013.83 1015.05 1016.08 1016.75 1016.94 1016.58 1015.68 1014.36 1012.76 1011.09 1009.56 1008.33 1007.50 1007.11 1007.14 1007.51 1008.10 1008.79 1009.49 1010.13 1010.68 1011.17 1011.61 1012.05 1012.54 1013.07 1013.65 1014.24 1014.81 1015.32 1015.73 1016.04 1016.27 1016.44 1016.58 1016.75 1016.95 1017.21 1017.51 1017.85 1018.18 1018.49 1018.77 1019.00 1019.20 1019.40 1019.60 1019.84
1012.97 1014.18 1015.36 1016.33 1016.92 1017.01 1016.56 1015.59 1014.19 1012.54 1010.82 1009.24 1007.95 1007.06 1006.60 1006.57 1006.87 1007.41 1008.07 1008.75 1009.39 1009.96 1010.47 1010.94 1011.41 1011.91 1012.45 1013.02 1013.60 1014.15 1014.65 1015.06 1015.37 1015.61 1015.79 1015.95 1016.12 1016.34 1016.60 1016.91 1017.26 1017.60 1017.94 1018.24 1018.50 1018.74 1018.96 1019.19 1019.44
1013.19 1014.30 1015.34 1016.16 1016.61 1016.59 1016.06 1015.06 1013.66 1012.04 1010.37 1008.82 1007.56 1006.67 1006.20 1006.11 1006.35 1006.83 1007.43 1008.07 1008.69 1009.26 1009.79 1010.28 1010.77 1011.29 1011.84 1012.41 1012.98 1013.52 1014.00 1014.39 1014.71 1014.94 1015.13 1015.30 1015.49 1015.71 1015.97 1016.29 1016.63 1016.99 1017.33 1017.65 1017.94 1018.20 1018.44 1018.69 1018.94
1013.18 1014.10 1014.93 1015.54 1015.81 1015.67 1015.08 1014.08 1012.76 1011.24 1009.70 1008.29 1007.12 1006.30 1005.84 1005.74 1005.93 1006.33 1006.86 1007.44 1008.02 1008.58 1009.10 1009.61 1010.13 1010.67 1011.23 1011.81 1012.37 1012.90 1013.37 1013.76 1014.07 1014.31 1014.50 1014.68 1014.88 1015.10 1015.37 1015.68 1016.03 1016.38 1016.73 1017.05 1017.35 1017.62 1017.88 1018.13 1018.38
Thickness
5794 5792 5789 5780 5760 5742 5742 5755 5767 5772 5779 5789 5792 5788 5781 5776 5770 5768 5791 5798 5797 5793 5790 5788 5785 5783 5781 5779 5776 5774 5773 5771 5769 5768 5767 5766 5765 5764 5763 5762 5761 5760 5759 5758 5757 5757 5756 5755 5755
5793 5790 5781 5767 5745 5730 5740 5761 5768 5777 5787 5793 5793 5790 5783 5781 5788 5788 5791 5795 5795 5792 5789 5786 5783 5781 5779 5777 5775 5773 5771 5769 5768 5766 5765 5763 5762 5761 5760 5760 5759 5758 5757 5756 5755 5754 5754 5753 5752
5791 5787 5769 5753 5740 5734 5748 5767 5775 5785 5792 5791 5787 5789 5784 5781 5788 5789 5794 5796 5793 5790 5787 5785 5782 5779 5777 5774 5772 5770 5769 5767 5766 5764 5762 5761 5760 5759 5758 5757 5756 5755 5754 5753 5753 5752 5752 5751 5750
5786 5774 5762 5746 5743 5750 5759 5773 5779 5782 5788 5791 5787 5781 5785 5793 5793 5794 5795 5793 5790 5787 5784 5782 5779 5777 5775 5772 5770 5768 5767 5765 5763 5762 5760 5759 5757 5756 5755 5754 5753 5752 5751 5751 5750 5750 5750 5749 5748
5778 5762 5747 5735 5743 5757 5769 5779 5781 5778 5781 5786 5784 5776 5778 5791 5797 5796 5793 5791 5787 5784 5781 5779 5777 5774 5772 5770 5768 5766 5764 5762 5761 5759 5758 5756 5755 5754 5752 5751 5750 5750 5749 5748 5748 5747 5747 5745 5744
5762 5752 5733 5729 5743 5760 5773 5782 5782 5779 5780 5784 5782 5775 5776 5787 5791 5790 5790 5787 5784 5781 5778 5776 5774 5772 5770 5768 5766 5763 5761 5760 5759 5757 5756 5755 5753 5751 5750 5749 5748 5747 5746 5745 5745 5744 5743 5743 5742
5755 5742 5734 5738 5743 5755 5773 5784 5780 5777 5777 5781 5785 5773 5775 5782 5787 5787 5785 5783 5780 5778 5775 5772 5771 5769 5767 5765 5763 5761 5759 5758 5756 5754 5753 5752 5750 5749 5748 5746 5746 5745 5743 5743 5742 5741 5741 5740 5739
5761 5744 5738 5737 5743 5754 5774 5781 5784 5781 5779 5789 5788 5773 5772 5781 5785 5783 5780 5777 5775 5773 5771 5769 5767 5766 5764 5762 5760 5758 5757 5755 5754 5752 5751 5749 5748 5747 5745 5744 5743 5742 5741 5740 5739 5738 5738 5737 5736
5763 5737 5729 5740 5747 5758 5773 5773 5780 5788 5784 5784 5786 5784 5786 5786 5782 5777 5773 5770 5768 5768 5767 5766 5764 5763 5762 5760 5758 5756 5754 5753 5751 5750 5748 5747 5745 5744 5743 5742 5741 5740 5739 5738 5736 5735 5734 5734 5732
5751 5731 5740 5755 5762 5765 5770 5771 5775 5777 5774 5775 5778 5783 5785 5782 5777 5772 5768 5765 5764 5763 5763 5763 5761 5760 5759 5757 5755 5753 5751 5749 5748 5747 5745 5744 5742 5741 5740 5739 5738 5737 5736 5735 5733 5732 5731 5730 5729
5751 5743 5754 5763 5769 5769 5768 5771 5776 5771 5766 5774 5776 5777 5779 5777 5773 5770 5767 5766 5764 5763 5761 5760 5759 5757 5755 5753 5751 5749 5747 5745 5744 5743 5742 5742 5739 5737 5737 5735 5734 5733 5732 5731 5729 5728 5727 5726 5725
5750 5754 5760 5766 5771 5769 5768 5771 5772 5773 5777 5787 5786 5783 5779 5774 5772 5770 5768 5766 5763 5761 5760 5759 5757 5755 5753 5751 5749 5747 5744 5743 5741 5740 5739 5737 5736 5735 5733 5731 5730 5729 5728 5727 5725 5724 5723 5722 5722
5749 5754 5763 5767 5768 5768 5769 5768 5770 5774 5785 5787 5783 5779 5776 5774 5773 5771 5770 5766 5762 5760 5758 5757 5755 5753 5751 5749 5746 5744 5741 5740 5738 5737 5736 5734 5733 5732 5730 5728 5726 5725 5724 5723 5721 5720 5719 5719 5718
5753 5755 5758 5762 5764 5767 5765 5767 5768 5774 5782 5780 5776 5773 5774 5773 5772 5768 5766 5763 5761 5760 5757 5756 5753 5751 5749 5746 5744 5741 5739 5737 5735 5734 5733 5731 5730 5728 5727 5725 5723 5722 5720 5719 5717 5716 5715 5714 5714
5753 5748 5751 5758 5761 5764 5762 5757 5766 5777 5778 5773 5772 5771 5771 5771 5770 5768 5767 5764 5762 5760 5757 5754 5752 5749 5747 5744 5742 5739 5737 5734 5732 5731 5730 5729 5726 5724 5723 5721 5720 5718 5717 5715 5713 5712 5711 5710 5709
5744 5736 5731 5750 5757 5761 5753 5743 5767 5775 5772 5768 5769 5768 5768 5767 5768 5768 5766 5764 5762 5758 5755 5752 5750 5746 5744 5741 5739 5736 5734 5731 5729 5728 5727 5726 5723 5722 5720 5718 5716 5714 5713 5711 5709 5707 5705 5704 5704
5724 5718 5724 5739 5753 5754 5747 5743 5763 5770 5768 5765 5765 5765 5765 5764 5765 5766 5766 5764 5761 5757 5753 5750 5747 5744 5741 5738 5735 5732 5730 5728 5726 5724 5723 5722 5720 5719 5717 5715 5713 5711 5709 5707 5706 5702 5701 5699 5699
5714 5716 5721 5729 5744 5745 5740 5744 5757 5764 5764 5762 5763 5763 5762 5762 5764 5765 5764 5763 5759 5756 5752 5748 5745 5741 5738 5734 5730 5727 5725 5723 5722 5720 5719 5718 5716 5715 5713 5711 5709 5708 5705 5703 5701 5699 5697 5696 5695
5725 5721 5719 5732 5745 5739 5736 5741 5751 5758 5758 5757 5758 5759 5759 5761 5764 5763 5762 5761 5757 5753 5749 5745 5741 5738 5734 5730 5726 5722 5719 5718 5717 5716 5715 5714 5713 5712 5710 5709 5706 5704 5702 5700 5698 5695 5693 5691 5690
5720 5714 5717 5731 5742 5738 5732 5736 5748 5755 5756 5759 5759 5758 5758 5757 5757 5758 5758 5756 5753 5750 5746 5743 5740 5736 5734 5730 5726 5722 5718 5716 5715 5713 5712 5710 5709 5708 5708 5706 5704 5702 5699 5696 5694 5692 5689 5687 5686
5717 5714 5718 5722 5731 5733 5728 5727 5738 5750 5755 5757 5758 5758 5758 5756 5755 5754 5754 5752 5750 5747 5744 5742 5738 5735 5732 5728 5723 5719 5714 5712 5709 5709 5708 5707 5706 5706 5705 5703 5701 5699 5697 5694 5692 5690 5687 5683 5682
5711 5729 5727 5724 5713 5706 5717 5701 5727 5738 5743 5749 5751 5753 5754 5755 5754 5752 5751 5748 5747 5746 5743 5739 5735 5732 5729 5725 5720 5716 5711 5707 5706 5705 5704 5704 5703 5703 5702 5701 5698 5696 5694 5692 5690 5688 5685 5682 5679
5723 5733 5727 5720 5709 5701 5706 5698 5714 5730 5733 5741 5747 5750 5752 5753 5753 5751 5749 5746 5745 5743 5739 5735 5732 5728 5725 5722 5718 5713 5709 5706 5704 5702 5701 5700 5700 5699 5699 5698 5696 5693 5691 5689 5687 5685 5683 5681 5678
5731 5723 5714 5702 5694 5686 5701 5695 5703 5718 5731 5740 5746 5748 5750 5750 5750 5749 5747 5743 5740 5738 5735 5730 5727 5723 5720 5716 5712 5710 5706 5703 5700 5698 5697 5696 5696 5696 5695 5694 5693 5691 5689 5687 5685 5684 5682 5680 5677
5721 5699 5680 5679 5671 5679 5701 5697 5703 5728 5737 5741 5742 5745 5747 5747 5745 5743 5740 5738 5735 5733 5731 5726 5723 5718 5715 5711 5708 5706 5704 5700 5698 5697 5695 5693 5692 5692 5692 5691 5690 5688 5687 5685 5683 5681 5679 5677 5675
5712 5702 5679 5670 5668 5678 5695 5693 5711 5733 5739 5741 5742 5742 5742 5741 5741 5739 5737 5735 5732 5730 5727 5723 5720 5715 5712 5708 5706 5703 5700 5698 5696 5695 5694 5692 5691 5691 5690 5689 5688 5686 5685 5683 5680 5678 5676 5674 5672
5708 5699 5702 5682 5678 5674 5682 5698 5715 5730 5732 5734 5735 5735 5735 5736 5736 5734 5732 5731 5729 5726 5723 5720 5717 5713 5710 5706 5703 5701 5699 5696 5694 5693 5692 5691 5690 5689 5688 5687 5685 5684 5682 5680 5678 5675 5673 5671 5669
5717 5704 5686 5675 5666 5665 5679 5688 5695 5714 5721 5725 5726 5728 5729 5730 5730 5729 5727 5726 5724 5722 5719 5716 5713 5710 5707 5704 5701 5700 5698 5696 5693 5691 5690 5688 5687 5687 5685 5684 5682 5681 5679 5677 5675 5673 5670 5668 5666
5704 5697 5686 5674 5673 5665 5664 5680 5711 5714 5719 5720 5721 5724 5724 5724 5724 5723 5722 5721 5719 5717 5714 5711 5709 5706 5703 5701 5698 5696 5695 5693 5690 5689 5688 5686 5685 5684 5682 5681 5679 5678 5676 5673 5671 5670 5668 5666 5664
5710 5700 5686 5676 5672 5669 5666 5679 5716 5715 5717 5717 5718 5719 5718 5718 5718 5717 5716 5715 5713 5711 5708 5706 5704 5702 5700 5698 5696 5694 5692 5690 5687 5686 5685 5684 5682 5681 5679 5678 5676 5674 5673 5671 5668 5666 5665 5663 5661